When you browse on this site, cookies collect data to enhance your experience and personalize the content and advertising you see.
Visit our Privacy Policy to learn more. By continuing to use the site, you agree to this use of cookies and data.

Hourly Weather Mingachevir

Today, 8 August, Saturday

Time Temperature Precipitation Wind Pressure Humidity
00:00 +27°C° 0 mm 2 mps 751 mmHg 44%
01:00 +27°C° 0 mm 1 mps 751 mmHg 46%
02:00 +26°C° 0 mm 1 mps 751 mmHg 48%
03:00 +25°C° 0 mm 1 mps 751 mmHg 51%
04:00 +26°C° 0 mm 1 mps 751 mmHg 51%
05:00 +26°C° 0 mm 1 mps 751 mmHg 51%
06:00 +24°C° 0 mm 0 mps 751 mmHg 51%
07:00 +28°C° 0 mm 1 mps 751 mmHg 46%
08:00 +30°C° 0 mm 1 mps 750 mmHg 40%
09:00 +32°C° 0 mm 1 mps 750 mmHg 34%
10:00 +33°C° 0 mm 1 mps 750 mmHg 31%
11:00 +36°C° 0 mm 2 mps 749 mmHg 28%
12:00 +37°C° 0 mm 2 mps 749 mmHg 25%
13:00 +37°C° 0 mm 3 mps 748 mmHg 24%
14:00 +38°C° 0 mm 3 mps 748 mmHg 23%
15:00 +38°C° 0 mm 3 mps 747 mmHg 22%
16:00 +38°C° 0 mm 3 mps 747 mmHg 24%
17:00 +37°C° 0 mm 3 mps 747 mmHg 25%
18:00 +36°C° 0 mm 3 mps 747 mmHg 26%
19:00 +35°C° 0 mm 3 mps 747 mmHg 28%
20:00 +32°C° 0 mm 2 mps 747 mmHg 30%
21:00 +30°C° 0 mm 2 mps 748 mmHg 32%
22:00 +29°C° 0 mm 2 mps 748 mmHg 33%
23:00 +28°C° 0 mm 2 mps 748 mmHg 34%

Tomorrow, 9 August, Sunday

Time Temperature Precipitation Wind Pressure Humidity
00:00 +27°C° 0 mm 3 mps 747 mmHg 35%
01:00 +27°C° 0 mm 2 mps 747 mmHg 37%
02:00 +26°C° 0 mm 2 mps 747 mmHg 39%
03:00 +26°C° 0 mm 2 mps 747 mmHg 42%
04:00 +26°C° 0 mm 1 mps 747 mmHg 43%
05:00 +26°C° 0 mm 1 mps 747 mmHg 44%
06:00 +26°C° 0 mm 1 mps 747 mmHg 45%
07:00 +28°C° 0 mm 1 mps 747 mmHg 39%
08:00 +30°C° 0 mm 1 mps 747 mmHg 34%
09:00 +32°C° 0 mm 1 mps 747 mmHg 29%
10:00 +35°C° 0 mm 2 mps 746 mmHg 26%
11:00 +36°C° 0 mm 2 mps 746 mmHg 24%
12:00 +38°C° 0 mm 3 mps 745 mmHg 21%
13:00 +38°C° 0 mm 3 mps 745 mmHg 20%
14:00 +39°C° 0 mm 3 mps 745 mmHg 19%
15:00 +39°C° 0 mm 3 mps 745 mmHg 18%
16:00 +39°C° 0 mm 3 mps 745 mmHg 20%
17:00 +38°C° 0 mm 2 mps 745 mmHg 21%
18:00 +37°C° 0 mm 2 mps 745 mmHg 23%
19:00 +35°C° 0 mm 3 mps 745 mmHg 26%
20:00 +33°C° 0 mm 3 mps 745 mmHg 29%
21:00 +30°C° 0 mm 4 mps 746 mmHg 32%
22:00 +29°C° 0 mm 4 mps 746 mmHg 37%
23:00 +28°C° 0 mm 4 mps 746 mmHg 43%

Day after tomorrow, 10 August, Monday

Time Temperature Precipitation Wind Pressure Humidity
00:00 +27°C° 0 mm 4 mps 747 mmHg 48%
01:00 +26°C° 0 mm 3 mps 747 mmHg 52%
02:00 +25°C° 0 mm 3 mps 747 mmHg 55%
03:00 +25°C° 0 mm 3 mps 747 mmHg 59%
04:00 +25°C° 0 mm 2 mps 747 mmHg 59%
05:00 +25°C° 0 mm 2 mps 747 mmHg 59%
06:00 +25°C° 0 mm 2 mps 747 mmHg 59%
07:00 +28°C° 0 mm 3 mps 747 mmHg 52%
08:00 +30°C° 0 mm 4 mps 747 mmHg 45%
09:00 +33°C° 0 mm 5 mps 747 mmHg 38%
10:00 +34°C° 0 mm 5 mps 747 mmHg 35%
11:00 +36°C° 0 mm 6 mps 747 mmHg 31%
12:00 +38°C° 0 mm 6 mps 746 mmHg 27%
13:00 +39°C° 0 mm 6 mps 746 mmHg 26%
14:00 +39°C° 0 mm 6 mps 746 mmHg 24%
15:00 +40°C° 0 mm 6 mps 745 mmHg 23%
16:00 +39°C° 0 mm 7 mps 745 mmHg 25%
17:00 +38°C° 0 mm 7 mps 745 mmHg 26%
18:00 +36°C° 0 mm 7 mps 745 mmHg 28%
19:00 +34°C° 0 mm 6 mps 746 mmHg 32%
20:00 +32°C° 0 mm 6 mps 746 mmHg 36%
21:00 +29°C° 0 mm 5 mps 747 mmHg 40%
22:00 +28°C° 0 mm 5 mps 747 mmHg 44%
23:00 +27°C° 0 mm 4 mps 747 mmHg 48%

11 August, Tuesday

Time Temperature Precipitation Wind Pressure Humidity
00:00 +26°C° 0 mm 4 mps 747 mmHg 51%
01:00 +26°C° 0 mm 4 mps 747 mmHg 55%
02:00 +25°C° 0 mm 3 mps 747 mmHg 59%
03:00 +25°C° 0 mm 3 mps 747 mmHg 62%
04:00 +25°C° 0 mm 3 mps 748 mmHg 62%
05:00 +25°C° 0 mm 3 mps 748 mmHg 62%
06:00 +26°C° 0 mm 3 mps 748 mmHg 62%
07:00 +27°C° 0 mm 3 mps 748 mmHg 54%
08:00 +29°C° 0 mm 3 mps 748 mmHg 47%
09:00 +31°C° 0 mm 3 mps 748 mmHg 39%
10:00 +33°C° 0 mm 4 mps 748 mmHg 36%
11:00 +34°C° 0 mm 4 mps 747 mmHg 33%
12:00 +35°C° 0 mm 4 mps 747 mmHg 29%
13:00 +36°C° 0 mm 4 mps 746 mmHg 28%
14:00 +36°C° 0 mm 4 mps 746 mmHg 28%
15:00 +37°C° 0 mm 4 mps 745 mmHg 27%
16:00 +36°C° 0 mm 4 mps 746 mmHg 28%
17:00 +36°C° 0 mm 3 mps 746 mmHg 29%
18:00 +36°C° 0 mm 3 mps 746 mmHg 30%
19:00 +34°C° 0 mm 3 mps 746 mmHg 33%
20:00 +32°C° 0 mm 4 mps 747 mmHg 36%
21:00 +29°C° 0 mm 4 mps 747 mmHg 39%
22:00 +29°C° 0 mm 4 mps 747 mmHg 41%
23:00 +28°C° 0 mm 4 mps 747 mmHg 43%

12 August, Wednesday

Time Temperature Precipitation Wind Pressure Humidity
00:00 +27°C° 0 mm 3 mps 747 mmHg 46%
01:00 +26°C° 0 mm 3 mps 747 mmHg 49%
02:00 +26°C° 0 mm 2 mps 747 mmHg 51%
03:00 +25°C° 0 mm 2 mps 747 mmHg 54%
04:00 +25°C° 0 mm 2 mps 747 mmHg 54%
05:00 +26°C° 0 mm 1 mps 748 mmHg 54%
06:00 +26°C° 0 mm 1 mps 748 mmHg 54%
07:00 +28°C° 0 mm 1 mps 748 mmHg 47%
08:00 +30°C° 0 mm 1 mps 748 mmHg 41%
09:00 +32°C° 0 mm 1 mps 747 mmHg 34%
10:00 +34°C° 0 mm 2 mps 747 mmHg 30%
11:00 +36°C° 0 mm 2 mps 747 mmHg 27%
12:00 +37°C° 0 mm 3 mps 747 mmHg 23%
13:00 +38°C° 0 mm 3 mps 746 mmHg 22%
14:00 +38°C° 0 mm 4 mps 746 mmHg 22%
15:00 +38°C° 0 mm 4 mps 746 mmHg 21%
16:00 +38°C° 0 mm 4 mps 746 mmHg 22%
17:00 +37°C° 0 mm 3 mps 746 mmHg 24%
18:00 +37°C° 0 mm 3 mps 746 mmHg 25%
19:00 +35°C° 0 mm 4 mps 747 mmHg 27%
20:00 +33°C° 0 mm 5 mps 747 mmHg 29%
21:00 +30°C° 0 mm 6 mps 748 mmHg 31%
22:00 +29°C° 0 mm 6 mps 748 mmHg 33%
23:00 +29°C° 0 mm 5 mps 748 mmHg 36%

13 August, Thursday

Time Temperature Precipitation Wind Pressure Humidity
00:00 +28°C° 0 mm 4 mps 748 mmHg 38%
01:00 +27°C° 0 mm 3 mps 748 mmHg 40%
02:00 +26°C° 0 mm 3 mps 748 mmHg 41%
03:00 +26°C° 0 mm 2 mps 747 mmHg 43%
04:00 +26°C° 0 mm 1 mps 747 mmHg 45%
05:00 +26°C° 0 mm 1 mps 748 mmHg 46%
06:00 +26°C° 0 mm 1 mps 748 mmHg 48%
07:00 +28°C° 0 mm 1 mps 747 mmHg 43%
08:00 +30°C° 0 mm 1 mps 747 mmHg 38%
09:00 +32°C° 0 mm 2 mps 747 mmHg 33%
10:00 +34°C° 0 mm 2 mps 747 mmHg 29%
11:00 +36°C° 0 mm 2 mps 746 mmHg 26%
12:00 +37°C° 0 mm 3 mps 746 mmHg 23%
13:00 +38°C° 0 mm 3 mps 745 mmHg 22%
14:00 +38°C° 0 mm 3 mps 745 mmHg 21%
15:00 +39°C° 0 mm 3 mps 744 mmHg 20%
16:00 +38°C° 0 mm 3 mps 744 mmHg 21%
17:00 +37°C° 0 mm 2 mps 744 mmHg 23%
18:00 +37°C° 0 mm 2 mps 744 mmHg 24%
19:00 +35°C° 0 mm 2 mps 745 mmHg 26%
20:00 +32°C° 0 mm 2 mps 746 mmHg 29%
21:00 +30°C° 0 mm 1 mps 746 mmHg 31%
22:00 +29°C° 0 mm 1 mps 746 mmHg 34%
23:00 +28°C° 0 mm 1 mps 747 mmHg 37%
Show more